This demonstration page uses our WeatherBlox Daily Observations layout. Learn more.

Left ArrowRight Arrow

41.86663, -103.66717

Hourly Observations for December 1, 2020

Temp ( °F °C ) Dew Point ( °F °C ) Humidity (%) Winds ( mph kmh ) Pressure ( in mb ) Visibility ( mi km ) Precip ( " mm )
12:53 am 00:53 Clear 31 -0.6 6 -14.4 35 35 NNW 6 9 29.88 1012 10 16 0.00 0.00
1:53 am 01:53 Clear 32 0 8 -13.3 36 36 NW 6 9 29.87 1012 10 16 0.00 0.00
2:53 am 02:53 Clear 33 0.6 12 -11.1 42 42 NW 6 9 29.89 1012 10 16 0.00 0.00
3:53 am 03:53 Clear 46 7.8 19 -7.2 34 34 WNW 15 24 29.89 1012 10 16 0.00 0.00
4:53 am 04:53 Clear 43 6.1 17 -8.3 35 35 NW 12 19 29.93 1014 10 16 0.00 0.00
5:53 am 05:53 Clear 41 5 14 -10 33 33 NW 18 30 30.00 1016 10 16 0.00 0.00
6:53 am 06:53 Clear 39 3.9 14 -10 36 36 NW 21 33 30.04 1017 10 16 0.00 0.00
7:53 am 07:53 Sunny 36 2.2 15 -9.4 42 42 NW 16 26 30.07 1018 10 16 0.00 0.00
8:53 am 08:53 Sunny 38 3.3 16 -8.9 41 41 WNW 18 30 30.11 1020 10 16 0.00 0.00
9:53 am 09:53 Partly Cloudy 43 6.1 16 -8.9 34 34 NNW 26 43 30.12 1020 10 16 0.00 0.00
10:53 am 10:53 Cloudy 45 7.2 17 -8.3 33 33 NNW 26 43 30.12 1020 10 16 0.00 0.00
11:53 am 11:53 Mostly Cloudy 45 7.2 18 -7.8 34 34 NW 30 48 30.12 1020 10 16 0.00 0.00
12:53 pm 12:53 Sunny 46 7.8 19 -7.2 34 34 NW 28 44 30.11 1020 10 16 0.00 0.00
1:53 pm 13:53 Mostly Cloudy 42 5.6 20 -6.7 41 41 NNW 24 39 30.15 1021 10 16 0.00 0.00
2:53 pm 14:53 Cloudy 39 3.9 20 -6.7 46 46 NW 31 50 30.20 1023 10 16 0.00 0.00
3:53 pm 15:53 Cloudy 38 3.3 21 -6.1 51 51 NW 24 39 30.18 1022 10 16 0.00 0.00
4:53 pm 16:53 Cloudy 36 2.2 21 -6.1 55 55 NNW 26 43 30.23 1024 10 16 0.00 0.00
5:53 pm 17:53 Cloudy 35 1.7 19 -7.2 52 52 NNW 24 39 30.27 1025 10 16 0.00 0.00
6:53 pm 18:53 Cloudy 33 0.6 17 -8.3 52 52 NNW 20 31 30.31 1026 10 16 0.00 0.00
7:53 pm 19:53 Mostly Cloudy 31 -0.6 17 -8.3 56 56 NNW 20 31 30.35 1028 10 16 0.00 0.00
8:53 pm 20:53 Clear 30 -1.1 17 -8.3 58 58 NNW 20 31 30.37 1028 10 16 0.00 0.00
9:53 pm 21:53 Clear 27 -2.8 16 -8.9 63 63 NW 15 24 30.37 1029 10 16 0.00 0.00
10:53 pm 22:53 Clear 25 -3.9 15 -9.4 66 66 WNW 13 20 30.39 1029 10 16 0.00 0.00
11:53 pm 23:53 Clear 22 -5.6 14 -10 71 71 WNW 10 17 30.42 1030 10 16 0.00 0.00

Powered by AerisWeather